Miscellaneous Local Product
Issued by NWS Hastings, NE

Home | Current Version | Previous Version | Graphics & Text | Print | Product List | Glossary On
Versions: 1 2 3 4 5 6 7 8 9 10 11 12 13 14 15 16 17 18 19 20 21 22 23 24 25 26 27 28 29 30 31 32 33 34 35 36 37 38 39 40 41 42 43 44 45 46 47 48 49 50
000
AXUS43 KGID 152202
MISGRI

GID CWA HOURLY WEATHER ROUNDUP
NATIONAL WEATHER SERVICE HASTINGS NE
500 PM CDT TUE APR 15 2014

NOTE: "FAIR" INDICATES FEW OR NO CLOUDS BELOW 12,000 FEET WITH NO
SIGNIFICANT WEATHER AND/OR OBSTRUCTIONS TO VISIBILITY.

...SOUTH CENTRAL NEBRASKA...

CITY           SKY/WX    TMP DP  RH WIND       PRES   REMARKS
GRAND ISLAND   PTSUNNY   62  26  25 S18G31    29.83F
HASTINGS       PTSUNNY   63  19  18 S17G31    29.82F
ORD            CLOUDY    57  28  33 S15       29.77F
YORK           PTSUNNY   59  27  29 S22G29    29.87F
AURORA         PTSUNNY   60  26  26 S23G30    29.86F
LEXINGTON      CLOUDY    63  28  26 SW16      29.77F
HOLDREGE       CLOUDY    61  26  26 SW20G29   29.79F
HEBRON         MOSUNNY   61  16  17 S17G33    29.90F

...NEBRASKA PANHANDLE...

CITY           SKY/WX    TMP DP  RH WIND       PRES   REMARKS
CHADRON        SUNNY     64  20  18 W13       29.63F
ALLIANCE       SUNNY     64  18  17 W20G28    29.66F
SCOTTSBLUFF    SUNNY     65  28  24 W22G29    29.68F
SIDNEY         SUNNY     65  17  15 SW17G25   29.73F

...WESTERN AND NORTH CENTRAL NEBRASKA...

CITY           SKY/WX    TMP DP  RH WIND       PRES   REMARKS
VALENTINE      PTSUNNY   68  18  14 W15G24    29.63F
AINSWORTH      PTSUNNY   64  25  22 S22       29.65F
ONEILL         MOSUNNY   57  24  27 S28       29.75F
BROKEN BOW     CLOUDY    61  27  27 S22G32    29.73F
IMPERIAL       PTSUNNY   66  19  16 W14       29.75F
NORTH PLATTE   PTSUNNY   63  21  20 SW17G25   29.72F
MCCOOK         CLOUDY    67  23  19 SW15      29.77F

...EASTERN NEBRASKA...

CITY           SKY/WX    TMP DP  RH WIND       PRES   REMARKS
NORFOLK        MOSUNNY   53  31  42 S22G31    29.85F
SO SIOUX CITY  MOSUNNY   51  24  34 S21       29.94F
TEKAMAH        MOSUNNY   54  25  32 S22G30    29.95F
COLUMBUS       PTSUNNY   55  28  35 S20G28    29.89F
ALBION         CLOUDY    54  28  36 S21G26    29.82F
OMAHA EPPLEY   PTSUNNY   52  23  32 S16       29.98F
OFFUTT AFB     MOSUNNY   52  26  35 SE14G22   29.98F
MILLARD        MOSUNNY   51  25  36 S15G21    29.98F
LINCOLN        PTSUNNY   58  23  26 S20G26    29.93F
NEBRASKA CITY  PTSUNNY   53  26  34 S16G25    30.00F
BEATRICE       CLOUDY    60  19  20 S17G28    29.93F
FALLS CITY     MOSUNNY   54  28  36 S14G23    30.02F

...NORTHERN KANSAS...

CITY           SKY/WX    TMP DP  RH WIND       PRES   REMARKS
GOODLAND       PTSUNNY   63  16  16 SW21G28   29.81F
HILL CITY      PTSUNNY   67  20  16 S22G28    29.83F
PHILLIPSBURG   SUNNY     66  18  15 S20G26    29.83F
SMITH CENTER   SUNNY     63  23  22 S22G28    29.87F
BELOIT         SUNNY     64  18  16 S16G29    29.89F
HAYS           CLOUDY    64  25  22 S23G32    29.88F
RUSSELL        CLOUDY    65  21  18 S25G37    29.88F
CONCORDIA      MOSUNNY   62  19  19 S24G32    29.92F
SALINA         PTSUNNY   64  19  17 S17       29.97F
TOPEKA         SUNNY     58  23  26 S9        30.05F



USA.gov is the U.S. government's official web portal to all federal, state and local government web resources and services.